Time,TemperatureF,DewpointF,PressureIn,WindDirection,WindDirectionDegrees,WindSpeedMPH,WindSpeedGustMPH,Humidity,HourlyPrecipIn,Conditions,Clouds,dailyrainin,SoftwareType,DateUTC
2013-09-04 00:22:00,61.0,52.0,30.35,North,0,0.0,1.0,71,0.01,,,0.02,,2013-09-04 07:22:00,
2013-09-04 00:52:00,63.0,52.0,30.35,SW,220,1.0,5.0,68,0.01,,,0.01,,2013-09-04 07:52:00,
2013-09-04 01:02:00,63.0,52.0,30.35,SW,220,1.0,5.0,68,0.01,,,0.01,,2013-09-04 08:02:00,
2013-09-04 01:22:00,64.0,52.0,30.34,North,0,0.0,1.0,66,0.00,,,0.01,,2013-09-04 08:22:00,
2013-09-04 01:52:00,63.0,52.0,30.34,North,0,0.0,0.0,68,0.00,,,0.01,,2013-09-04 08:52:00,
2013-09-04 02:21:00,63.0,53.0,30.33,North,0,0.0,2.0,69,0.00,,,0.01,,2013-09-04 09:21:00,
2013-09-04 02:43:00,63.0,53.0,30.33,North,0,0.0,4.0,70,0.00,,,0.01,,2013-09-04 09:43:00,
2013-09-04 02:53:00,62.0,52.0,30.33,North,0,0.0,4.0,70,0.00,,,0.01,,2013-09-04 09:53:00,
2013-09-04 03:23:00,62.0,52.0,30.33,North,0,0.0,0.0,71,0.00,,,0.01,,2013-09-04 10:23:00,
2013-09-04 03:52:00,61.0,53.0,30.32,North,0,0.0,1.0,74,0.00,,,0.01,,2013-09-04 10:52:00,
2013-09-04 04:22:00,61.0,53.0,30.34,North,0,0.0,3.0,75,0.00,,,0.01,,2013-09-04 11:22:00,
2013-09-04 04:52:00,62.0,52.0,30.34,North,0,0.0,3.0,70,0.00,,,0.01,,2013-09-04 11:52:00,
2013-09-04 05:21:00,61.0,53.0,30.35,North,0,0.0,2.0,74,0.00,,,0.01,,2013-09-04 12:21:00,
2013-09-04 05:52:00,59.0,52.0,30.36,North,0,0.0,0.0,78,0.00,,,0.01,,2013-09-04 12:52:00,
2013-09-04 06:21:00,57.0,51.0,30.36,North,0,0.0,0.0,81,0.00,,,0.01,,2013-09-04 13:21:00,
2013-09-04 06:31:00,57.0,51.0,30.36,North,0,0.0,0.0,81,0.00,,,0.01,,2013-09-04 13:31:00,
2013-09-04 06:52:00,57.0,51.0,30.36,North,0,0.0,0.0,81,0.00,,,0.01,,2013-09-04 13:52:00,
2013-09-04 07:21:00,57.0,53.0,30.38,North,0,0.0,0.0,86,0.00,,,0.01,,2013-09-04 14:21:00,
2013-09-04 07:51:00,60.0,54.0,30.38,North,0,0.0,0.0,82,0.00,,,0.01,,2013-09-04 14:51:00,
2013-09-04 08:22:00,66.0,56.0,30.38,North,0,0.0,0.0,70,0.00,,,0.01,,2013-09-04 15:22:00,
2013-09-04 08:53:00,72.0,53.0,30.38,North,0,0.0,1.0,52,0.00,,,0.01,,2013-09-04 15:53:00,
2013-09-04 09:23:00,76.0,54.0,30.39,North,0,0.0,3.0,47,0.00,,,0.01,,2013-09-04 16:23:00,
2013-09-04 09:34:00,76.0,54.0,30.39,North,0,0.0,3.0,47,0.00,,,0.01,,2013-09-04 16:34:00,
2013-09-04 09:53:00,76.0,52.0,30.39,North,0,0.0,5.0,44,0.00,,,0.01,,2013-09-04 16:53:00,
2013-09-04 10:13:00,77.0,53.0,30.39,ENE,60,2.0,7.0,44,0.00,,,0.01,,2013-09-04 17:13:00,
2013-09-04 10:22:00,77.0,53.0,30.39,ENE,60,2.0,7.0,44,0.00,,,0.01,,2013-09-04 17:22:00,
2013-09-04 10:52:00,78.0,50.0,30.38,East,82,7.0,12.0,38,0.00,,,0.01,,2013-09-04 17:52:00,
2013-09-04 11:21:00,78.0,50.0,30.38,ESE,122,6.0,13.0,37,0.00,,,0.01,,2013-09-04 18:21:00,
2013-09-04 11:52:00,80.0,51.0,30.37,East,83,7.0,11.0,37,0.00,,,0.01,,2013-09-04 18:52:00,
2013-09-04 12:22:00,80.0,51.0,30.38,South,180,2.0,13.0,36,0.00,,,0.01,,2013-09-04 19:22:00,
2013-09-04 12:32:00,80.0,51.0,30.38,South,180,2.0,13.0,36,0.00,,,0.01,,2013-09-04 19:32:00,
2013-09-04 12:52:00,80.0,48.0,30.37,ENE,74,9.0,15.0,33,0.00,,,0.01,,2013-09-04 19:52:00,
2013-09-04 13:22:00,81.0,49.0,30.36,SSE,160,4.0,14.0,33,0.00,,,0.01,,2013-09-04 20:22:00,
2013-09-04 13:53:00,82.0,51.0,30.35,East,100,11.0,15.0,34,0.00,,,0.01,,2013-09-04 20:53:00,
2013-09-04 14:01:00,82.0,51.0,30.35,East,100,11.0,15.0,34,0.00,,,0.01,,2013-09-04 21:01:00,
2013-09-04 14:11:00,82.0,51.0,30.35,East,100,11.0,15.0,34,0.00,,,0.01,,2013-09-04 21:11:00,
2013-09-04 14:22:00,82.0,51.0,30.35,East,100,11.0,15.0,34,0.00,,,0.01,,2013-09-04 21:22:00,
2013-09-04 15:14:00,80.0,46.0,30.30,SSE,164,5.0,9.0,30,0.00,,,0.01,,2013-09-04 22:14:00,
2013-09-04 15:23:00,80.0,46.0,30.30,SSE,164,5.0,9.0,30,0.00,,,0.01,,2013-09-04 22:23:00,
2013-09-04 15:33:00,80.0,46.0,30.30,SSE,164,5.0,9.0,30,0.00,,,0.01,,2013-09-04 22:33:00,
2013-09-04 15:54:00,79.0,54.0,30.30,WSW,243,5.0,13.0,42,0.00,,,0.01,,2013-09-04 22:54:00,
2013-09-04 16:22:00,76.0,53.0,30.32,WSW,239,6.0,19.0,45,0.00,,,0.01,,2013-09-04 23:22:00,
2013-09-04 16:52:00,76.0,52.0,30.31,SW,233,5.0,12.0,44,0.00,,,0.01,,2013-09-04 23:52:00,
2013-09-04 17:11:00,76.0,51.0,30.31,WSW,237,5.0,10.0,42,0.00,,,0.01,,2013-09-05 00:11:00,
2013-09-04 17:22:00,76.0,51.0,30.31,WSW,237,5.0,10.0,42,0.00,,,0.01,,2013-09-05 00:22:00,
2013-09-04 17:52:00,75.0,51.0,30.31,SW,236,2.0,8.0,43,0.00,,,0.01,,2013-09-05 00:52:00,
2013-09-04 18:11:00,75.0,52.0,30.31,WSW,239,3.0,8.0,44,0.00,,,0.01,,2013-09-05 01:11:00,
2013-09-04 18:21:00,75.0,52.0,30.31,WSW,239,3.0,8.0,44,0.00,,,0.01,,2013-09-05 01:21:00,
2013-09-04 18:52:00,74.0,51.0,30.32,SW,220,4.0,7.0,45,0.00,,,0.01,,2013-09-05 01:52:00,
2013-09-04 19:02:00,74.0,51.0,30.32,SW,220,4.0,7.0,45,0.00,,,0.01,,2013-09-05 02:02:00,
2013-09-04 19:21:00,73.0,53.0,30.32,WSW,239,3.0,10.0,49,0.00,,,0.01,,2013-09-05 02:21:00,
2013-09-04 20:22:00,71.0,51.0,30.33,SW,234,4.0,14.0,50,0.00,,,0.01,,2013-09-05 03:22:00,
2013-09-04 20:34:00,71.0,51.0,30.33,SW,234,4.0,14.0,50,0.00,,,0.01,,2013-09-05 03:34:00,
2013-09-04 20:54:00,72.0,51.0,30.34,North,0,0.0,10.0,48,0.00,,,0.01,,2013-09-05 03:54:00,
2013-09-04 21:13:00,73.0,50.0,30.34,WSW,241,3.0,10.0,45,0.00,,,0.01,,2013-09-05 04:13:00,
2013-09-04 21:23:00,73.0,50.0,30.34,WSW,241,3.0,10.0,45,0.00,,,0.01,,2013-09-05 04:23:00,
2013-09-04 21:53:00,70.0,52.0,30.34,SW,230,1.0,3.0,52,0.00,,,0.01,,2013-09-05 04:53:00,
2013-09-04 22:03:00,70.0,52.0,30.34,SW,230,1.0,3.0,52,0.00,,,0.01,,2013-09-05 05:03:00,
2013-09-04 22:23:00,69.0,52.0,30.35,North,0,0.0,2.0,55,0.00,,,0.01,,2013-09-05 05:23:00,
2013-09-04 22:52:00,68.0,53.0,30.35,North,0,0.0,1.0,58,0.00,,,0.01,,2013-09-05 05:52:00,
2013-09-04 23:02:00,68.0,53.0,30.35,North,0,0.0,1.0,58,0.00,,,0.01,,2013-09-05 06:02:00,
2013-09-04 23:21:00,67.0,53.0,30.35,North,0,0.0,5.0,60,0.00,,,0.01,,2013-09-05 06:21:00,
2013-09-04 23:31:00,67.0,53.0,30.35,North,0,0.0,5.0,60,0.00,,,0.01,,2013-09-05 06:31:00,
2013-09-04 23:52:00,67.0,53.0,30.35,North,0,0.0,5.0,60,0.00,,,0.01,,2013-09-05 06:52:00,